FW2498 Weather Reports


Display with metric or nautical units.
time (UTC)temp
F
wind
direction
speed
MPH
gust
MPH
rain 1hr
in
rain 24hr
in
rain mn
in
humidity
%
barometer
mb
20260904060020 61 102 0.0 2.0 0.00 0.22 0.22 56 1009.1
20260904054519 59 102 0.0 2.0 0.00 0.22 0.22 61 1009.2
20260904053035 64 177 0.0 3.0 0.00 0.22 0.22 57 1009.1
20260904051524 64 223 0.0 0.0 0.00 0.22 0.22 52 1008.7
20260904050016 64 223 0.0 0.0 0.00 0.22 0.22 56 1008.6
20260904044519 64 223 0.0 0.0 0.00 0.22 0.22 60 1008.6
20260904043018 63 223 2.0 3.0 0.00 0.22 0.22 60 1008.6
20260904041515 65 222 3.0 4.0 0.00 0.22 0.22 58 1008.6
20260904040014 67 67 2.0 3.0 0.00 0.22 0.22 50 1008.4
20260904034513 68 67 0.0 0.0 0.00 0.22 0.22 56 1008.6
20260904033014 68 67 3.0 5.0 0.00 0.22 0.22 51 1008.5
20260904031518 69 85 0.0 2.0 0.00 0.22 0.22 54 1008.6
20260904030012 70 85 0.0 0.0 0.00 0.22 0.22 52 1008.8
20260904024511 71 85 0.0 1.0 0.00 0.22 0.22 52 1008.9
20260904023110 72 85 0.0 0.0 0.00 0.22 0.22 51 1008.6
20260904021507 73 86 0.0 2.0 0.00 0.22 0.22 49 1008.5
20260904020006 74 86 0.0 2.0 0.00 0.22 0.22 48 1008.4
20260904014505 76 42 1.0 5.0 0.00 0.22 0.22 46 1008.0
20260904013005 77 322 3.0 5.0 0.00 0.22 0.22 43 1007.6
20260904011601 77 321 3.0 5.0 0.00 0.22 0.22 42 1007.5
20260904011502 77 321 3.0 6.0 0.00 0.22 0.22 42 1007.5
20260904010100 79 322 5.0 8.0 0.00 0.22 0.22 40 1007.2
20260904004558 80 321 5.0 9.0 0.00 0.22 0.22 36 1007.0
20260904003057 80 306 7.0 10.0 0.00 0.22 0.22 35 1006.9
20260904001556 81 311 8.0 11.0 0.00 0.22 0.22 32 1006.9
20260904000106 81 306 8.0 12.0 0.00 0.22 0.22 31 1006.9
20260903234555 81 326 7.0 9.0 0.00 0.22 0.22 31 1006.8
20260903233054 81 300 8.0 12.0 0.00 0.22 0.22 32 1006.8
20260903231555 81 304 8.0 11.0 0.00 0.22 0.22 32 1006.5
20260903230053 81 311 6.0 13.0 0.00 0.22 0.22 32 1006.3
20260903224551 82 333 11.0 17.0 0.00 0.22 0.22 32 1006.1
20260903223053 82 308 7.0 14.0 0.00 0.22 0.22 33 1006.0
20260903221547 82 287 11.0 15.0 0.00 0.22 0.22 34 1005.9
20260903220047 82 290 10.0 13.0 0.00 0.22 0.22 33 1005.7
20260903214604 83 336 7.0 12.0 0.00 0.22 0.22 35 1005.8
20260903213047 82 281 6.0 14.0 0.00 0.22 0.22 36 1005.8
20260903211539 82 281 4.0 15.0 0.00 0.22 0.22 38 1005.8
20260903210044 81 312 6.0 15.0 0.00 0.22 0.22 39 1005.7
20260903204537 81 308 9.0 12.0 0.00 0.22 0.22 41 1005.8
20260903203035 80 323 5.0 13.0 0.00 0.22 0.22 44 1005.8
20260903201537 80 310 2.0 13.0 0.00 0.22 0.22 46 1005.7
20260903200034 80 331 4.0 20.0 0.00 0.22 0.22 52 1005.7
20260903194530 79 240 6.0 11.0 0.00 0.22 0.22 50 1005.6
20260903193029 78 40 1.0 8.0 0.00 0.22 0.22 55 1005.7
20260903191526 78 128 1.0 6.0 0.00 0.22 0.22 56 1005.7
20260903190024 77 240 2.0 5.0 0.00 0.22 0.22 59 1005.7
20260903184521 76 214 3.0 10.0 0.00 0.22 0.22 61 1005.7
20260903183019 75 263 3.0 10.0 0.00 0.22 0.22 61 1005.9
20260903181515 75 245 8.0 11.0 0.00 0.22 0.22 63 1006.0
20260903180019 75 218 7.0 11.0 0.00 0.22 0.22 62 1006.2
20260903174510 75 183 4.0 10.0 0.00 0.22 0.22 65 1006.1
20260903173005 74 200 5.0 10.0 0.00 0.22 0.22 65 1006.1
20260903171506 73 190 5.0 10.0 0.00 0.22 0.22 67 1006.1
20260903170104 72 214 5.0 11.0 0.00 0.22 0.22 69 1006.1
20260903164555 70 190 8.0 11.0 0.00 0.22 0.22 70 1006.3
20260903163050 69 171 11.0 16.0 0.00 0.22 0.22 72 1006.6
20260903161549 68 195 8.0 12.0 0.00 0.22 0.22 73 1006.6
20260903160047 68 181 11.0 14.0 0.00 0.22 0.22 76 1007.0
20260903154550 66 166 7.0 9.0 0.00 0.22 0.22 77 1007.0
20260903153055 66 112 5.0 9.0 0.00 0.22 0.22 78 1006.7
20260903151541 64 60 2.0 7.0 0.00 0.22 0.22 82 1006.6
20260903150038 64 45 2.0 7.0 0.00 0.22 0.22 82 1006.5
20260903144541 62 19 1.0 4.0 0.00 0.22 0.22 85 1006.7
20260903143045 61 15 0.0 3.0 0.00 0.22 0.22 86 1006.8
20260903141538 61 15 2.0 3.0 0.00 0.22 0.22 88 1006.6
20260903140029 60 11 3.0 5.0 0.00 0.22 0.22 89 1006.5
20260903134527 59 319 3.0 4.0 0.00 0.22 0.22 89 1006.5
20260903133024 58 204 0.0 5.0 0.00 0.22 0.22 89 1006.6
20260903131520 59 34 0.0 6.0 0.00 0.22 0.22 89 1005.9
20260903130017 57 245 0.0 3.0 0.00 0.22 0.22 89 1005.6
20260903124517 58 245 0.0 0.0 0.00 0.22 0.22 89 1005.6
20260903123011 58 245 0.0 2.0 0.00 0.22 0.22 88 1005.5
20260903121509 58 245 0.0 6.0 0.00 0.22 0.22 87 1005.8
20260903120006 59 250 6.0 8.0 0.00 0.22 0.22 85 1005.9
20260903114504 60 318 0.0 6.0 0.00 0.22 0.22 85 1005.6
20260903113003 60 330 1.0 6.0 0.00 0.22 0.22 83 1006.0
20260903111501 60 330 2.0 7.0 0.00 0.22 0.22 85 1005.8
20260903110101 61 9 4.0 10.0 0.00 0.22 0.22 84 1005.7
20260903104622 60 45 6.0 8.0 0.00 0.22 0.22 86 1005.4
20260903103105 60 98 5.0 9.0 0.00 0.22 0.22 87 1005.1
20260903101558 60 110 3.0 7.0 0.00 0.22 0.22 87 1004.6
20260903100057 59 97 7.0 10.0 0.00 0.22 0.22 88 1004.3
20260903094555 60 149 2.0 6.0 0.00 0.22 0.22 87 1004.4
20260903093103 60 123 4.0 7.0 0.00 0.22 0.22 86 1003.8
20260903091553 60 142 0.0 5.0 0.00 0.22 0.22 87 1003.8
20260903090052 61 56 3.0 8.0 0.00 0.22 0.22 87 1003.3
20260903084556 60 54 8.0 12.0 0.01 0.22 0.22 87 1003.2
20260903083056 60 31 15.0 19.0 0.14 0.22 0.22 86 1003.4
20260903081606 62 47 11.0 15.0 0.14 0.22 0.22 82 1003.6
20260903080044 62 354 12.0 18.0 0.15 0.22 0.22 83 1004.5
20260903074546 60 15 13.0 15.0 0.13 0.20 0.20 87 1006.0
20260903073040 60 268 4.0 6.0 0.05 0.08 0.08 87 1006.2
20260903071537 61 48 12.0 15.0 0.08 0.08 0.08 86 1005.4
20260903070036 61 31 11.0 15.0 0.07 0.07 0.07 85 1005.7
20260903064540 61 8 10.0 19.0 0.07 0.07 0.07 82 1006.2
20260903063035 64 259 12.0 21.0 0.02 0.02 0.02 76 1006.5
20260903061527 67 280 19.0 25.0 0.00 0.00 0.00 68 1006.4